Flag Weather past 2 weeks in Perg, Upper Austria, Austria

Now
41 °F

Quite cool.


Feels Like: 38 °F
Forecast: 34 / 44 °F
Wind: 5 mph from East

Location: Amstetten

Current Time: Nov 24, 2014 at 6:41:45 AM

Latest Report: Nov 24, 2014 at 5:00 AM


Visibility: N/A

Pressure: 30.27 "Hg

Humidity: 87%

Dew point: 38 °F

Location of PergLocation

Historic Weather in Perg — Graph

°F

Perg temperature yesterday

Maximum temperature yesterday: 44 °F (at 3:00 PM)
Minimum temperature yesterday: 40 °F (at 4:00 AM)
Average temperature yesterday: 42 °F

Past Weeks' High & Low Weather Summary

 TemperatureHumidityPressure
High69 °F (Nov 12, 3:00 PM)100% (Nov 10, 7:00 AM)30.36 "Hg (Nov 10, 7:00 AM)
Low39 °F (Nov 21, 8:00 PM)50% (Nov 12, 3:00 PM)29.50 "Hg (Nov 16, 4:00 AM)
Average48 °F88%29.95 "Hg
* Reported Nov 9 5:00 AM — Nov 24 5:00 AM, Perg, Weather by CustomWeather, © 2014

Note: Actual official high and low records may vary slightly from our data, if they occured in-between our weather recording intervals... More about our weather records

Advertising

Perg weather history for previous 24 hours

 ConditionsComfort  
Time TempWeatherWind HumidityBarometerVisibility
5:00 AM
Nov 24
41 °FQuite cool.5 mph87%30.27 "HgN/A
4:00 AM42 °FQuite cool.5 mph87%30.27 "HgN/A
3:00 AM42 °FQuite cool.3 mph87%30.27 "HgN/A
2:00 AM42 °FQuite cool.6 mph86%30.29 "HgN/A
1:00 AM42 °FQuite cool.3 mph86%30.29 "HgN/A
12:00 AM42 °FQuite cool.6 mph87%30.29 "HgN/A
11:00 PM
Nov 23
43 °FQuite cool.5 mph86%30.30 "HgN/A
10:00 PM43 °FQuite cool.5 mph86%30.30 "HgN/A
9:00 PM43 °FQuite cool.5 mph86%30.30 "HgN/A
8:00 PM43 °FQuite cool.5 mph85%30.29 "HgN/A
7:00 PM43 °FQuite cool.5 mph85%30.29 "HgN/A
6:00 PM43 °FQuite cool.6 mph84%30.30 "HgN/A
5:00 PM44 °FQuite cool.6 mph86%30.30 "HgN/A
4:00 PM43 °FQuite cool.6 mph85%30.30 "HgN/A
3:00 PM44 °FQuite cool.5 mph84%30.31 "HgN/A
2:00 PM42 °FQuite cool.7 mph87%30.32 "HgN/A
1:00 PM42 °FQuite cool.7 mph88%30.33 "HgN/A
12:00 PM41 °FQuite cool.6 mph90%30.34 "HgN/A
11:00 AM41 °FQuite cool.6 mph91%30.36 "HgN/A
10:00 AM41 °FQuite cool.6 mph92%30.35 "HgN/A
9:00 AM41 °FQuite cool.5 mph93%30.34 "HgN/A
8:00 AM40 °FQuite cool.5 mph93%30.33 "HgN/A
7:00 AM40 °FQuite cool.3 mph92%30.32 "HgN/A
6:00 AM40 °FQuite cool.5 mph92%30.32 "HgN/A
Weather by CustomWeather, © 2014

See weather overviewHow to use our weather pages